Location: Abbey Hill
(34.0751°N, 84.0688°W)
Time: 06:08:52
(UTC+00:00)

Envisat - Pass Details

Date: 01 October 2021
Orbit: 764 x 766 km, 98.2° (Epoch: 23 October)

Event Time Altitude Azimuth Distance (km) Brightness Sun altitude
Rises 10:17:19 0° 19° (NNE) 3,234 6.6 -16.1°
Reaches altitude 10° 10:19:42 10° 24° (NNE) 2,304 5.9 -15.6°
Maximum altitude 10:24:37 49° 100° (E) 975 4.0 -14.6°
Drops below altitude 10° 10:29:30 10° 175° (S) 2,290 5.5 -13.5°
Sets 10:31:52 0° 180° (S) 3,212 6.2 -13.1°
